Location: Unspecified
(0.0000°N, 0.0000°E)
Time: 02:43:36
(UTC+00:00)

DMSP 5D-3 F18 (USA 210) - Pass Details

Date: 24 February 2019
Orbit: 840 x 856 km, 98.6° (Epoch: 20 October)

Event Time Altitude Azimuth Distance (km) Brightness Sun altitude
Rises 04:23:11 0° 44° (NE) 3,411 8.3 -27.1°
Reaches altitude 10° 04:26:26 10° 64° (ENE) 2,476 7.8 -26.3°
Maximum altitude 04:29:50 17° 103° (ESE) 2,036 7.6 -25.5°
Drops below altitude 10° 04:33:13 10° 142° (SE) 2,476 7.7 -24.6°
Sets 04:36:26 0° 161° (SSE) 3,411 8.2 -23.9°
